Location: Baia de Cri?
(46.1667°N, 22.7167°E)
Time: 20:59:54
(UTC+00:00)

Dummy Sat-01 - Pass Details

Date: 15 January 2026
Orbit: 476 x 491 km, 86.3° (Epoch: 10 February)

Event Time Altitude Azimuth Distance (km) Brightness Sun altitude
Rises 04:55:45 0° 187° (S) 2,557 8.4 -12.2°
Reaches altitude 10° 04:57:51 10° 190° (S) 1,680 7.4 -11.9°
Maximum altitude 05:01:30 70° 274° (W) 527 4.5 -11.3°
Drops below altitude 10° 05:05:10 10° 359° (N) 1,691 7.1 -10.7°
Sets 05:07:17 0° 2° (N) 2,576 8.1 -10.3°
